User: anonymous   Login
Location: Hopewell Observatory
(38.8698°N, 77.6988°W)
Time: 00:19:45
(UTC-05:00)
Language:

Cosmos 1515 - Orbit

View from above orbital plane
View from above orbital plane
View from above satellite
View from above satellite

Ground track
Ground track

The orbit data is extracted from the following two-line orbital elements,

1 14551U 83122A   19051.69308840  .00000431  00000-0  19736-4 0  9994
2 14551  82.4984 287.4638 0006487 335.8019  86.3545 15.17772085662878
Epoch (UTC): 20 February 2019 16:38:02
Eccentricity: 0.0006487
inclination: 82.4984°
perigee height: 508 km
apogee height: 517 km
right ascension of ascending node: 287.4638°
argument of perigee: 335.8019°
revolutions per day: 15.17772085
mean anomaly at epoch: 86.3545°
orbit number at epoch: 66287

The dashed part of the orbit path shows where the satellite is in the earth's shadow,  

DLR